Location: ??????????
(42.1626°N, 44.1160°E)
Time: 10:29:05
(UTC+00:00)

ERS-2 - Pass Details

Date: 03 March 2021
Orbit: 492 x 496 km, 98.6° (Epoch: 20 April)

Event Time Altitude Azimuth Distance (km) Brightness Sun altitude
Rises 15:14:15 0° 25° (NNE) 2,592 5.5 -4.2°
Reaches altitude 10° 15:16:35 10° 38° (NE) 1,704 4.4 -4.6°
Maximum altitude 15:19:43 26° 97° (E) 999 3.1 -5.2°
Drops below altitude 10° 15:22:50 10° 156° (SSE) 1,693 4.6 -5.8°
Sets 15:25:08 0° 169° (S) 2,570 5.7 -6.2°
